When you browse on this site, cookies collect data to enhance your experience and personalize the content and advertising you see.
Visit our Privacy Policy to learn more. By continuing to use the site, you agree to this use of cookies and data.
  • In Portugal
  • List of Countries
  • For 7 days
  • Water Temperature
  • Satellite Maps
  • Weather Map
  • Weather Widgets
  • user-avatar
    Login

    Hourly Weather Chwaliszow

    Today, 16 February, Saturday

    Time Temperature Precipitation Wind Pressure Humidity
    00:00 +4°C° 0 mm 1 mps 743 mmHg 56%
    01:00 +3°C° 0 mm 1 mps 743 mmHg 54%
    02:00 +3°C° 0 mm 1 mps 742 mmHg 53%
    03:00 +2°C° 0 mm 2 mps 742 mmHg 52%
    04:00 +2°C° 0 mm 2 mps 742 mmHg 51%
    05:00 +2°C° 0 mm 2 mps 742 mmHg 51%
    06:00 +2°C° 0 mm 2 mps 741 mmHg 51%
    07:00 +2°C° 0 mm 2 mps 741 mmHg 52%
    08:00 +4°C° 0 mm 2 mps 741 mmHg 55%
    09:00 +5°C° 0 mm 2 mps 741 mmHg 59%
    10:00 +7°C° 0 mm 2 mps 742 mmHg 63%
    11:00 +8°C° 0 mm 2 mps 741 mmHg 64%
    12:00 +9°C° 0 mm 2 mps 741 mmHg 65%
    13:00 +10°C° 0 mm 2 mps 741 mmHg 66%
    14:00 +9°C° 0 mm 2 mps 741 mmHg 67%
    15:00 +8°C° 0 mm 2 mps 740 mmHg 68%
    16:00 +8°C° 0 mm 3 mps 740 mmHg 69%
    17:00 +7°C° 0 mm 3 mps 740 mmHg 65%
    18:00 +5°C° 0 mm 3 mps 740 mmHg 61%
    19:00 +3°C° 0 mm 3 mps 740 mmHg 57%
    20:00 +3°C° 0 mm 3 mps 740 mmHg 58%
    21:00 +3°C° 0 mm 3 mps 740 mmHg 58%
    22:00 +3°C° 0 mm 3 mps 740 mmHg 58%
    23:00 +3°C° 0 mm 3 mps 740 mmHg 60%

    Tomorrow, 17 February, Sunday

    Time Temperature Precipitation Wind Pressure Humidity
    00:00 +2°C° 0 mm 3 mps 740 mmHg 61%
    01:00 +2°C° 0 mm 3 mps 740 mmHg 62%
    02:00 +2°C° 0 mm 3 mps 740 mmHg 63%
    03:00 +3°C° 0 mm 2 mps 739 mmHg 63%
    04:00 +2°C° 0 mm 2 mps 739 mmHg 63%
    05:00 +2°C° 0 mm 2 mps 739 mmHg 63%
    06:00 +2°C° 0 mm 2 mps 739 mmHg 63%
    07:00 +2°C° 0 mm 2 mps 739 mmHg 64%
    08:00 +3°C° 0 mm 2 mps 739 mmHg 64%
    09:00 +5°C° 0 mm 2 mps 740 mmHg 65%
    10:00 +6°C° 0 mm 2 mps 740 mmHg 66%
    11:00 +7°C° 0 mm 2 mps 739 mmHg 65%
    12:00 +9°C° 0 mm 2 mps 739 mmHg 64%
    13:00 +10°C° 0 mm 2 mps 739 mmHg 63%
    14:00 +9°C° 0 mm 2 mps 739 mmHg 65%
    15:00 +10°C° 0 mm 1 mps 738 mmHg 68%
    16:00 +9°C° 0 mm 1 mps 738 mmHg 70%
    17:00 +7°C° 0 mm 2 mps 738 mmHg 69%
    18:00 +5°C° 0 mm 2 mps 738 mmHg 68%
    19:00 +4°C° 0 mm 2 mps 738 mmHg 67%
    20:00 +4°C° 0 mm 2 mps 738 mmHg 64%
    21:00 +4°C° 0 mm 2 mps 738 mmHg 62%
    22:00 +4°C° 0 mm 2 mps 738 mmHg 60%
    23:00 +3°C° 0 mm 2 mps 738 mmHg 61%

    Day after tomorrow, 18 February, Monday

    Time Temperature Precipitation Wind Pressure Humidity
    00:00 +3°C° 0 mm 2 mps 738 mmHg 61%
    01:00 +3°C° 0 mm 2 mps 738 mmHg 62%
    02:00 +3°C° 0 mm 2 mps 737 mmHg 63%
    03:00 +3°C° 0 mm 2 mps 737 mmHg 65%
    04:00 +3°C° 0 mm 2 mps 737 mmHg 66%
    05:00 +3°C° 0 mm 2 mps 737 mmHg 66%
    06:00 +2°C° 0 mm 2 mps 737 mmHg 67%
    07:00 +2°C° 0 mm 2 mps 737 mmHg 67%
    08:00 +4°C° 0 mm 2 mps 737 mmHg 66%
    09:00 +5°C° 0 mm 2 mps 737 mmHg 65%
    10:00 +7°C° 0 mm 2 mps 737 mmHg 64%
    11:00 +8°C° 0 mm 2 mps 737 mmHg 62%
    12:00 +9°C° 0 mm 2 mps 737 mmHg 60%
    13:00 +10°C° 0 mm 2 mps 737 mmHg 58%
    14:00 +10°C° 0 mm 2 mps 736 mmHg 60%
    15:00 +9°C° 0 mm 2 mps 736 mmHg 63%
    16:00 +8°C° 0 mm 2 mps 736 mmHg 66%
    17:00 +7°C° 0 mm 2 mps 735 mmHg 67%
    18:00 +6°C° 0 mm 2 mps 735 mmHg 69%
    19:00 +3°C° 0 mm 3 mps 735 mmHg 70%
    20:00 +3°C° 0 mm 3 mps 735 mmHg 72%
    21:00 +3°C° 0 mm 3 mps 735 mmHg 74%
    22:00 +3°C° 0 mm 3 mps 735 mmHg 76%
    23:00 +1°C° 0 mm 4 mps 735 mmHg 76%

    19 February, Tuesday

    Time Temperature Precipitation Wind Pressure Humidity
    00:00 +1°C° 0 mm 4 mps 735 mmHg 76%
    01:00 +1°C° 0 mm 4 mps 735 mmHg 76%
    02:00 +1°C° 0 mm 4 mps 734 mmHg 77%
    03:00 +1°C° 0 mm 4 mps 734 mmHg 77%
    04:00 +2°C° 0 mm 3 mps 734 mmHg 77%
    05:00 +1°C° 0 mm 3 mps 734 mmHg 78%
    06:00 +1°C° 0 mm 3 mps 734 mmHg 79%
    07:00 +1°C° 0 mm 3 mps 734 mmHg 80%
    08:00 +2°C° 0 mm 3 mps 734 mmHg 77%
    09:00 +4°C° 0 mm 3 mps 734 mmHg 73%
    10:00 +5°C° 0 mm 4 mps 734 mmHg 69%
    11:00 +6°C° 0 mm 4 mps 734 mmHg 66%
    12:00 +7°C° 0 mm 4 mps 734 mmHg 63%
    13:00 +8°C° 0 mm 4 mps 733 mmHg 61%
    14:00 +7°C° 0 mm 4 mps 733 mmHg 63%
    15:00 +7°C° 0 mm 4 mps 733 mmHg 65%
    16:00 +6°C° 0 mm 4 mps 733 mmHg 67%
    17:00 +6°C° 0 mm 4 mps 733 mmHg 69%
    18:00 +5°C° 0 mm 4 mps 733 mmHg 70%
    19:00 +4°C° 0 mm 4 mps 733 mmHg 72%
    20:00 +4°C° 0.1 mm 4 mps 734 mmHg 75%
    21:00 +4°C° 0.1 mm 4 mps 734 mmHg 79%
    22:00 +4°C° 0.1 mm 4 mps 734 mmHg 83%
    23:00 +4°C° 0.4 mm 3 mps 735 mmHg 87%

    20 February, Wednesday

    Time Temperature Precipitation Wind Pressure Humidity
    00:00 +3°C° 0.4 mm 3 mps 735 mmHg 90%
    01:00 +3°C° 0.4 mm 3 mps 735 mmHg 93%
    02:00 +3°C° 0 mm 3 mps 735 mmHg 93%
    03:00 +2°C° 0 mm 3 mps 736 mmHg 93%
    04:00 +2°C° 0 mm 3 mps 736 mmHg 93%
    05:00 +2°C° 0 mm 3 mps 736 mmHg 93%
    06:00 +2°C° 0 mm 2 mps 736 mmHg 93%
    07:00 +2°C° 0 mm 2 mps 737 mmHg 93%
    08:00 +2°C° 0 mm 3 mps 737 mmHg 87%
    09:00 +3°C° 0 mm 3 mps 737 mmHg 82%
    10:00 +4°C° 0 mm 3 mps 738 mmHg 77%
    11:00 +5°C° 0 mm 3 mps 738 mmHg 73%
    12:00 +6°C° 0 mm 4 mps 737 mmHg 69%
    13:00 +6°C° 0 mm 4 mps 737 mmHg 65%
    14:00 +6°C° 0 mm 4 mps 737 mmHg 67%
    15:00 +7°C° 0 mm 3 mps 737 mmHg 68%
    16:00 +7°C° 0 mm 3 mps 737 mmHg 70%
    17:00 +5°C° 0 mm 3 mps 737 mmHg 74%
    18:00 +4°C° 0 mm 3 mps 737 mmHg 79%
    19:00 +3°C° 0 mm 3 mps 737 mmHg 83%
    20:00 +3°C° 0 mm 3 mps 737 mmHg 83%
    21:00 +3°C° 0 mm 3 mps 737 mmHg 83%
    22:00 +3°C° 0 mm 3 mps 737 mmHg 83%
    23:00 +3°C° 0 mm 3 mps 737 mmHg 83%

    21 February, Thursday

    Time Temperature Precipitation Wind Pressure Humidity
    00:00 +3°C° 0 mm 3 mps 737 mmHg 83%
    01:00 +3°C° 0 mm 3 mps 737 mmHg 84%
    02:00 +3°C° 0.1 mm 3 mps 737 mmHg 84%
    03:00 +3°C° 0.1 mm 3 mps 737 mmHg 85%
    04:00 +3°C° 0.1 mm 3 mps 737 mmHg 85%
    05:00 +3°C° 0.2 mm 3 mps 737 mmHg 86%
    06:00 +3°C° 0.2 mm 3 mps 737 mmHg 86%
    07:00 +3°C° 0.2 mm 3 mps 737 mmHg 87%
    08:00 +3°C° 0.3 mm 3 mps 738 mmHg 86%
    09:00 +4°C° 0.3 mm 3 mps 738 mmHg 84%
    10:00 +4°C° 0.3 mm 3 mps 738 mmHg 83%
    11:00 +5°C° 0.1 mm 3 mps 738 mmHg 80%
    12:00 +6°C° 0.1 mm 4 mps 738 mmHg 77%
    13:00 +7°C° 0.1 mm 4 mps 738 mmHg 74%
    14:00 +8°C° 0 mm 3 mps 737 mmHg 75%
    15:00 +8°C° 0 mm 3 mps 737 mmHg 76%
    16:00 +8°C° 0 mm 3 mps 737 mmHg 78%
    17:00 +7°C° 0.1 mm 2 mps 737 mmHg 81%
    18:00 +6°C° 0.1 mm 2 mps 737 mmHg 85%
    19:00 +6°C° 0.1 mm 2 mps 737 mmHg 88%
    20:00 +6°C° 0.7 mm 2 mps 737 mmHg 90%
    21:00 +5°C° 0.7 mm 2 mps 737 mmHg 91%
    22:00 +6°C° 0.7 mm 1 mps 737 mmHg 92%
    23:00 +6°C° 0.4 mm 1 mps 737 mmHg 93%
    Show more